Regional Weather Roundup
Issued by NWS

Home | Current Version | Previous Version | Text Only | Print | Product List | Glossary Off
Versions: 1 2 3 4 5 6 7 8 9 10 11 12 13 14 15 16 17 18 19 20 21 22 23 24 25 26 27 28 29 30 31 32 33 34 35 36 37 38 39 40 41 42 43 44 45 46 47 48 49 50

000
ASUS43 KDMX 301203
RWRIA

WEATHER ROUNDUP FOR IOWA
NATIONAL WEATHER SERVICE DES MOINES IA
700 AM CDT MON MAY 30 2016

NOTE: "FAIR" INDICATES FEW OR NO CLOUDS BELOW 12,000 FEET WITH NO
SIGNIFICANT WEATHER AND/OR OBSTRUCTIONS TO VISIBILITY.

* - THESE STATIONS ARE NOT NWS STATIONS...THUS NOT UNDER NWS
QUALITY CONTROL.  THEY ALSO DO NOT REPORT WEATHER SUCH
AS PRECIPITATION OR FOG.

IAZ001>003-012>014-020>022-031>034-043>046-301300-
   NORTHWEST IOWA

CITY           SKY/WX    TMP DP  RH WIND       PRES   REMARKS
CARROLL *      CLOUDY    63  57  82 NE6       30.02R
CHEROKEE *     PTSUNNY   63  55  75 NE6       30.02R
DENISON *      SUNNY     61  57  88 E3        29.99R
LE MARS *      CLOUDY    63  55  77 E6        30.02R
ORANGE CITY *  SUNNY     63  55  77 E6        30.02R
SHELDON *      CLOUDY    63  54  72 E8G15     29.99S
SIOUX CITY     MOSUNNY   64  54  69 E7        29.99R
6HR MIN TEMP:  62; 6HR MAX TEMP:  67;

SPENCER        CLOUDY    59  54  83 SE5       30.02R
6HR MIN TEMP:  56; 6HR MAX TEMP:  62; 6HR PCP:  0.26;

STORM LAKE *   MOSUNNY   64  52  63 NE13      30.03F
$$

IAZ055>058-069>071-079>083-090>094-301300-
   SOUTHWEST IOWA

CITY           SKY/WX    TMP DP  RH WIND       PRES   REMARKS
ATLANTIC *     SUNNY     63  61  94 CALM      30.03R
AUDUBON *      SUNNY     61  57  88 CALM      30.03R
CLARINDA *       N/A     64  63  94 MISG      30.04R
COUNCIL BLFS * SUNNY     63  61  94 CALM      30.03R
CRESTON *      SUNNY     64  63  94 S5        30.06R
HARLAN  *      SUNNY     63  61  94 CALM      30.05R
LAMONI         SUNNY     64  61  90 S8        30.05R
6HR MIN TEMP:  62; 6HR MAX TEMP:  69; 6HR PCP: TRACE;

RED OAK *      SUNNY     63  63 100 CALM      30.02S
SHENANDOAH *   SUNNY     64  64 100 NE5       30.02S
$$

IAZ047>049-059>061-072>074-084-301300-
   CENTRAL IOWA

CITY           SKY/WX    TMP DP  RH WIND       PRES   REMARKS
AMES           MOSUNNY   64  59  83 CALM      30.01S
6HR MIN TEMP:  58; 6HR MAX TEMP:  64;

ANKENY *       MOSUNNY   64  61  88 MISG      30.03R
BOONE *        CLOUDY    68  55  64 SE8       30.01R
CHARITON *     PTSUNNY   64  63  94 CALM      30.04R
DES MOINES     PTSUNNY   67  61  81 S6        30.02R
6HR MIN TEMP:  65; 6HR MAX TEMP:  72;

GRINNELL*      MOSUNNY   62  58  87 E3        30.04S
KNOXVILLE *    CLOUDY    66  63  88 CALM      30.03R
MARSHALLTOWN   MOSUNNY   63  61  93 E7        30.02R
6HR MIN TEMP:  60; 6HR MAX TEMP:  64; 6HR PCP: TRACE;

NEWTON *       MOSUNNY   64  63  94 S3        30.03R
PELLA *        MOSUNNY   65  64  93 CALM      30.05R
PERRY *          N/A     65  60  85 SE5       30.02R
$$

IAZ004>006-015-016-023>025-035-036-301300-
   NORTH CENTRAL IOWA

CITY           SKY/WX    TMP DP  RH WIND       PRES   REMARKS
ALGONA *       CLOUDY    61  55  82 NE7       30.04F
CLARION *      LGT RAIN  61  55  82 N13       30.04R
ESTHERVILLE    LGT RAIN  58  53  84 NE15      29.99F
6HR MIN TEMP:  54; 6HR MAX TEMP:  61; 6HR PCP:  0.10;

FORT DODGE *   CLOUDY    64  52  63 N7G20     30.07R
MASON CITY     CLOUDY    60  57  89 W5        30.06R
6HR MIN TEMP:  52; 6HR MAX TEMP:  60;

FOREST CITY *  RAIN      55  55 100 NW8       30.07R
WEBSTER CITY * CLOUDY    61  55  82 E9        30.01R
IOWA FALLS *     N/A     62  58  87 SE6       30.04S
$$

IAZ007>011-017>019-026>030-037>042-050>054-066-301300-
   NORTHEAST IOWA

CITY           SKY/WX    TMP DP  RH WIND       PRES   REMARKS
CEDAR RAPIDS   PTSUNNY   65  62  90 CALM      30.02S
6HR MIN TEMP:  58; 6HR MAX TEMP:  67; 6HR PCP: TRACE;

CHARLES CITY * MOSUNNY   57  57 100 S5        30.04R
CLINTON *      CLOUDY    66  61  84 NW6       30.04R
DECORAH *      CLOUDY    59  59 100 CALM      30.03R
DUBUQUE        SUNNY     65  59  81 CALM      30.04R
6HR MIN TEMP:  58; 6HR MAX TEMP:  65;

MONTICELLO *   SUNNY     61  59  94 CALM      30.03S
OELWEIN *      SUNNY     61  61 100 CALM      30.04S
WATERLOO       SUNNY     59  58  96 CALM      30.02S FOG
6HR MIN TEMP:  54; 6HR MAX TEMP:  62;

$$

IAZ064-065-067-068-078-301300-
   EAST CENTRAL IOWA

CITY           SKY/WX    TMP DP  RH WIND       PRES   REMARKS
DAVENPORT      SUNNY     67  60  78 CALM      30.03R
6HR MIN TEMP:  61; 6HR MAX TEMP:  69;

IOWA CITY      RAIN      66  61  84 CALM      30.05R
6HR MIN TEMP:  61; 6HR MAX TEMP:  68; 6HR PCP:  0.02;

MT. PLEASANT * CLOUDY    70  64  83 CALM      30.04R
MUSCATINE *    SUNNY     64  61  88 S5        30.03R
QUAD CITIES    SUNNY     68  60  75 CALM      30.02R
6HR MIN TEMP:  61; 6HR MAX TEMP:  71;

$$

IAZ062-063-075>077-085>089-095>099-301300-
   SOUTHEAST IOWA

CITY           SKY/WX    TMP DP  RH WIND       PRES   REMARKS
BURLINGTON     MOSUNNY   67  64  90 SW3       30.03R
6HR MIN TEMP:  63; 6HR MAX TEMP:  68;

FAIRFIELD *      N/A    N/A N/A N/A MISG        N/A
FORT MADISON * SUNNY     70  63  78 SW3       30.05R
KEOKUK *         N/A     66  64  94 CALM      30.04R
OSKALOOSA *      N/A     64  61  88 CALM      30.04R
OTTUMWA        CLOUDY    65  60  84 SW10      30.03R
6HR MIN TEMP:  64; 6HR MAX TEMP:  71; 6HR PCP:  0.35;

WASHINGTON *   SUNNY     66 N/A N/A CALM      30.05R
$$

ABBREVIATIONS USED IN REMARKS
   TC - TEMPERATURES IN CELSIUS
  WCI - WIND CHILL INDEX
   HX - HEAT INDEX
  VSB - VISIBILITY
$$





USA.gov is the U.S. government's official web portal to all federal, state and local government web resources and services.